Flag for U.S.A. Weather past 2 weeks in Berkeley, California, U.S.A.

Now
64 °F

Clear.


Feels Like: 64 °F
Forecast: 61 / 78 °F
Wind: 3 mph from Northwest

Location: Metro Oakland International Airport

Current Time: Jul 26, 2014 at 2:08:31 AM

Latest Report: Jul 26, 2014 at 12:53 AM


Visibility: 10 mi

Pressure: 29.88 "Hg

Humidity: 75%

Dew point: 56 °F

Location of BerkeleyLocation

Historic Weather in Berkeley — Graph

°F

Berkeley temperature yesterday

Maximum temperature yesterday: 90 °F (at 1:53 PM)
Minimum temperature yesterday: 62 °F (at 5:53 AM)
Average temperature yesterday: 72 °F

Past Weeks' High & Low Weather Summary

 TemperatureHumidityPressure
High90 °F (Jul 25, 1:53 PM)90% (Jul 16, 1:53 AM)30.15 "Hg (Jul 16, 1:53 AM)
Low57 °F (Jul 14, 4:53 AM)23% (Jul 25, 12:53 PM)29.83 "Hg (Jul 25, 3:53 AM)
Average66 °F71%29.98 "Hg
* Reported Jul 11 12:53 AM — Jul 26 12:53 AM, Berkeley, Weather by CustomWeather, © 2014

Note: Actual official high and low records may vary slightly from our data, if they occured in-between our weather recording intervals... More about our weather records

Advertising

Berkeley weather history for previous 24 hours

 ConditionsComfort  
Time TempWeatherWind HumidityBarometerVisibility
12:53 AM
Jul 26
64 °FClear.3 mph75%29.88 "Hg10 mi
11:53 PM
Jul 25
64 °FClear.5 mph78%29.88 "Hg10 mi
10:53 PM65 °FClear.10 mph76%29.88 "Hg10 mi
9:53 PM67 °FClear.10 mph71%29.87 "Hg10 mi
8:53 PM70 °FSunny.9 mph66%29.85 "Hg10 mi
7:53 PM73 °FSunny.12 mph57%29.84 "Hg10 mi
6:53 PM76 °FPassing clouds.9 mph50%29.83 "Hg10 mi
5:53 PM79 °FPassing clouds.14 mph45%29.83 "Hg10 mi
4:53 PM82 °FPassing clouds.15 mph41%29.84 "Hg10 mi
3:53 PM84 °FSunny.15 mph40%29.83 "Hg10 mi
2:53 PM88 °FSunny.15 mph34%29.84 "Hg10 mi
1:53 PM90 °FSunny.12 mph33%29.85 "Hg10 mi
12:53 PM87 °FSunny.7 mph23%29.86 "Hg10 mi
11:53 AM78 °FSunny.7 mph46%29.87 "Hg10 mi
10:53 AM73 °FSunny.6 mph59%29.88 "Hg10 mi
9:53 AM71 °FSunny.5 mph66%29.88 "Hg9 mi
8:53 AM69 °FPassing clouds.3 mph68%29.89 "Hg9 mi
7:53 AM67 °FPassing clouds.No wind73%29.88 "Hg8 mi
6:53 AM63 °FPassing clouds.No wind81%29.86 "Hg8 mi
5:53 AM62 °FClear.3 mph80%29.84 "Hg9 mi
4:53 AM63 °FClear.12 mph81%29.84 "Hg8 mi
3:53 AM63 °FClear.9 mph81%29.83 "Hg9 mi
2:53 AM63 °FClear.3 mph78%29.83 "Hg9 mi
Weather by CustomWeather, © 2014

See weather overviewHow to use our weather pages